8,
Avoca, PA
on Sunday, December 2, 2012

Sunday
Previous Day Next Day
Daily Summary
 ActualAverageRecord
Temperature
Mean Temperature °F 35°F  
Max Temperature 51°F 42°F 69°F (1914)
Min Temperature 39°F 28°F 6°F (1976)
Degree Days
Heating Degree Days 20 30  
Month to date heating degree days 47 59  
Since 1 July heating degree days 1274 1372  
Cooling Degree Days 0 0  
Month to date cooling degree days 0 0  
Year to date cooling degree days 864 580  
Moisture
Dew Point 40°F   
Average Humidity 80    
Maximum Humidity 93    
Minimum Humidity 66    
Precipitation
Precipitation 0.04 in 0.10 in 0.97 in (1936)
Month to date precipitation 0.04 0.20  
Year to date precipitation 34.21 35.78  
Wind
Wind Speed 4 mph   
Max Wind Speed 13 mph   
Max Gust Speed 20 mph   
Visibility 7 miles   
Events Rain   

Key: T is trace of precipitation, MM is missing value
Source: NWS Daily Summary
Time(EST)TemperatureDew PointHumidity Pressure Visibility Wind DirectionWind SpeedGust SpeedPrecipitationEvents Conditions
12:39 AM 41.0°F 37.4°F 87% 30.37 in 10.0 miles Calm Calm - N/A   Overcast
12:54 AM 41.0°F 37.9°F 89% 30.38 in 10.0 miles SSE 3.5 mph - N/A   Overcast
1:54 AM 41.0°F 37.9°F 89% 30.36 in 9.0 miles Calm Calm - N/A   Overcast
2:01 AM 41.0°F 37.4°F 87% 30.34 in 9.0 miles Calm Calm - N/A   Overcast
2:54 AM 41.0°F 37.0°F 86% 30.37 in 9.0 miles Calm Calm - N/A   Overcast
3:54 AM 41.0°F 37.9°F 89% 30.35 in 10.0 miles Calm Calm - N/A   Overcast
4:18 AM 42.8°F 37.4°F 81% 30.33 in 10.0 miles Variable 5.8 mph - N/A   Overcast
4:54 AM 41.0°F 37.0°F 86% 30.34 in 9.0 miles SW 5.8 mph - N/A   Overcast
5:20 AM 39.2°F 37.4°F 93% 30.31 in 9.0 miles South 5.8 mph - N/A   Scattered Clouds
5:54 AM 39.9°F 37.0°F 89% 30.32 in 9.0 miles SSW 4.6 mph - N/A   Clear
6:54 AM 39.9°F 36.0°F 86% 30.30 in 9.0 miles Calm Calm - N/A   Clear
7:54 AM 41.0°F 36.0°F 82% 30.30 in 8.0 miles SW 3.5 mph - N/A   Partly Cloudy
8:25 AM 41.0°F 35.6°F 81% 30.29 in 8.0 miles South 3.5 mph - N/A   Mostly Cloudy
8:41 AM 41.0°F 35.6°F 81% 30.29 in 8.0 miles SSW 3.5 mph - N/A   Scattered Clouds
8:54 AM 42.1°F 36.0°F 79% 30.29 in 8.0 miles South 6.9 mph - N/A   Partly Cloudy
9:54 AM 43.0°F 37.0°F 80% 30.27 in 8.0 miles SSW 5.8 mph - N/A   Mostly Cloudy
10:54 AM 45.0°F 37.9°F 76% 30.24 in 9.0 miles SSW 5.8 mph - N/A   Mostly Cloudy
11:54 AM 46.0°F 37.9°F 73% 30.20 in 9.0 miles SSW 8.1 mph - N/A   Clear
12:54 PM 48.9°F 39.0°F 69% 30.15 in 9.0 miles SSW 10.4 mph 16.1 mph N/A   Clear
1:54 PM 50.0°F 39.9°F 68% 30.12 in 9.0 miles Variable 6.9 mph - 0.01 in   Clear
2:54 PM 50.0°F 39.9°F 68% 30.10 in 8.0 miles South 6.9 mph - N/A   Clear
3:54 PM 48.0°F 39.9°F 74% 30.08 in 7.0 miles SSW 3.5 mph - N/A   Mostly Cloudy
4:54 PM 46.9°F 39.9°F 77% 30.07 in 7.0 miles South 9.2 mph 16.1 mph N/A   Mostly Cloudy
5:54 PM 46.9°F 42.1°F 83% 30.08 in 5.0 miles SW 8.1 mph - 0.00 in Rain Light Rain
6:33 PM 46.4°F 42.8°F 87% 30.08 in 5.0 miles SSW 3.5 mph - 0.02 in   Overcast
6:54 PM 46.0°F 43.0°F 89% 30.10 in 4.0 miles Calm Calm - 0.02 in   Overcast
7:07 PM 46.4°F 44.6°F 93% 30.09 in 3.0 miles Calm Calm - N/A   Overcast
7:14 PM 46.4°F 44.6°F 93% 30.09 in 2.5 miles Calm Calm - 0.00 in Rain Light Rain
7:54 PM 46.0°F 44.1°F 93% 30.10 in 2.5 miles Calm Calm - 0.01 in Rain Light Rain
8:54 PM 46.0°F 44.1°F 93% 30.12 in 2.5 miles Calm Calm - 0.00 in   Overcast
9:33 PM 46.4°F 44.6°F 93% 30.10 in 2.5 miles SSW 3.5 mph - N/A   Overcast
9:51 PM 46.4°F 44.6°F 93% 30.10 in 2.5 miles Calm Calm - N/A   Overcast
9:54 PM 46.0°F 44.1°F 93% 30.12 in 2.5 miles Calm Calm - N/A   Overcast
10:54 PM 46.9°F 44.1°F 90% 30.11 in 3.0 miles Calm Calm - N/A   Overcast
11:20 PM 46.4°F 44.6°F 93% 30.10 in 3.0 miles Calm Calm - N/A   Overcast
11:54 PM 46.9°F 44.1°F 90% 30.11 in 3.0 miles Calm Calm - N/A   Overcast
Astronomy
Sunrise:07:10 AM (EST) Moon Rise:08:20 PM (EST)12/2
Sunset:04:34 PM (EST) Moon Set:09:58 AM (EST)12/2
Moon Phase
Dec. 02 Dec. 06 Dec. 13 Dec. 20 Dec. 28

Copyright © 2015 The Weather Underground, Inc.
8,